Preview of NWS' New Version of Forecast
This preview is not operational and should not be used for support decisions.

Regional Weather Roundup (RWR)

Issued by National Weather Service (NWS)

                            
000
ASCA42 TJSJ 230610
RWRPR 
PUERTO RICO/U.S. VIRGIN ISLANDS HOURLY WEATHER ROUNDUP
NATIONAL WEATHER SERVICE SAN JUAN PR
200 AM AST SAT FEB 23 2019

PRZ001>002-007>008-010-230700-
PUERTO RICO
  
CITY           SKY/WX    TMP DP  RH WIND       PRES   REMARKS
SAN JUAN LMM   PTCLDY    77  68  73 E7        30.13F                  
AGUADILLA      LGT RAIN  73 N/A N/A SE8       30.15F                  
CEIBA          CLEAR     73  68  83 E9        30.14F                  
$$

VIZ001>002-230700-
U.S. VIRGIN ISLANDS
  
CITY           SKY/WX    TMP DP  RH WIND       PRES   REMARKS
CHARLOTTE AMA  CLEAR     75  68  78 E9        30.12F                  
CHRISTIANSTED  CLEAR     75  66  73 NE9       30.11F                  
$$

HOURLY WEATHER ROUNDUP FOR THE NEWS MEDIA
  
CITY           SKY/WX    TMP DP  RH WIND       PRES   REMARKS
ORLANDO        CLOUDY    75  72  90 SE9       30.16S                  
NEW YORK       CLOUDY    36  24  62 N8        30.48R WCI  30          
NEWARK         CLOUDY    35  23  61 N9        30.47R WCI  28          
CHICAGO        CLOUDY    37  27  67 E10       30.21F WCI  30          
HARTFORD       FAIR      30  23  75 CALM      30.44R                  
BOSTON         MOCLDY    35  18  49 N8        30.46R WCI  29          
DALLAS         CLOUDY    50  49  96 SE6       29.84F FOG              
PHILADELPHIA   CLOUDY    37  23  56 NE5       30.48R WCI  33          
LOS ANGELES    CLEAR     51  28  41 SE5       30.17R                  
WASHINGTON DC  CLOUDY    35  30  82 CALM      30.44R